Howe Sound: Past 24 Hour Conditions

 

Howe Sound - Pam Rocks

03:00 PM PDT 29 August 2014
This table is a summary of hourly weather conditions for the past 24 hours.
Date / Time
(PDT)
Wind(knots) Conditions Visibility(km) Pressure(kPa) Air tempC) Relative humidity(%) Dew pointC) Humidex
29 August 2014
15:00 SW 10 N/A N/A 101.3 19 60 11 *
14:00 SSW 9 N/A N/A 101.3 19 60 11 *
13:00 SSW 17 N/A N/A 101.3 18 65 12 *
12:00 SSW 14 gust 19 N/A N/A 101.3 19 60 11 *
11:00 S 7 N/A N/A 101.3 19 63 12 *
10:00 WNW 7 N/A N/A 101.3 18 62 11 *
9:00 S 3 N/A N/A 101.3 18 62 10 *
8:00 SW 9 N/A N/A 101.3 18 65 11 *
7:00 WNW 13 N/A N/A 101.2 18 66 12 *
6:00 W 13 N/A N/A 101.2 19 72 13 *
5:00 NW 5 N/A N/A 101.2 19 76 15 *
4:00 WNW 7 N/A N/A 101.2 19 75 15 *
3:00 NW 6 N/A N/A 101.3 19 78 15 *
2:00 NW 8 N/A N/A 101.3 19 79 15 *
1:00 NW 6 N/A N/A 101.3 19 81 16 *
0:00 NW 5 N/A N/A 101.4 19 80 15 *
28 August 2014
23:00 N 2 N/A N/A 101.4 20 77 16 *
22:00 WNW 2 N/A N/A 101.4 20 77 16 *
21:00 WNW 3 N/A N/A 101.5 20 74 15 25
20:00 W 4 N/A N/A 101.5 21 71 15 25
19:00 WNW 3 N/A N/A 101.5 21 69 15 26
18:00 S 6 N/A N/A 101.5 22 69 16 26
17:00 SSW 9 N/A N/A 101.6 22 65 15 26
16:00 SW 9 N/A N/A 101.6 22 66 15 26
15:00 SSW 14 N/A N/A 101.7 21 68 15 26
 
Map of Pacific - Georgia Basin marine weather areas Tsawwassen Ferry Terminal Sentry Shoal - 46131 Halibut Bank - 46146 La Perouse Bank - 46206 Discovery Island Esquimalt Harbour Kelp Reefs Malahat Race Rocks Lightstation Saturna Island Sheringham Point University of Victoria Victoria Gonzales Victoria Int'l Airport Ballenas Islands Campbell River Airport Comox Airport Entrance Island Fanny Island Nanaimo Airport Sisters Islets Estevan Point Tofino Airport Grief Point Powell River Airport Sechelt Point Atkinson Sand Heads Lightstation Vancouver Harbour Vancouver Int'l Airport West Vancouver Port Alberni Howe Sound - Pam Rocks Squamish Airport